Temperature
26 27 28 29 29 29 29 29 29 30 31 30 31 31 31 29 28 28 26 25 24 22 21 20 19 19 18 19 19 19 19 19 18 18 17 17 17 17 17 17 17 17 17 17
27 27 29 29 29 28 28 28 29 30 30 30 30 31 31 29 28 27 27 25 24 23 21 20 19 19 18 18 18 18 18 18 18 18 18 17 17 17 17 17 17 17 17 17
28 29 29 28 28 28 28 29 29 29 30 30 30 30 30 30 28 27 26 25 24 23 22 20 19 19 19 18 18 18 18 18 18 18 17 17 17 17 17 17 17 17 17 17
28 29 28 27 28 28 28 29 29 29 29 30 29 29 30 30 29 28 27 25 24 23 22 21 20 19 19 18 18 18 18 18 18 18 17 17 17 17 17 17 17 17 17 17
28 28 28 27 28 28 29 29 29 29 29 29 30 29 30 30 30 29 28 26 25 23 22 21 20 19 19 19 18 18 18 18 18 17 17 17 17 17 17 17 17 17 17 17
29 29 28 29 29 29 29 28 28 29 29 28 29 29 29 30 29 29 28 26 24 23 22 21 20 19 19 19 18 18 18 18 18 17 17 17 17 17 17 17 17 17 17 17
27 28 29 29 29 28 28 28 28 28 28 28 29 28 29 30 29 28 27 26 24 23 22 21 20 19 19 19 18 18 18 18 18 17 17 17 17 17 17 17 17 17 17 17
27 28 29 29 29 28 28 29 28 28 28 29 28 28 30 29 28 27 26 25 24 23 22 21 20 19 19 18 18 18 18 18 17 17 17 17 17 17 17 17 17 17 17 17
28 28 29 29 29 29 28 29 30 29 29 28 29 29 30 28 28 27 26 25 24 23 22 21 20 19 19 18 18 18 17 17 17 17 17 17 17 17 17 17 17 17 17 16
29 28 29 29 29 29 30 30 29 28 27 27 28 29 29 29 28 28 27 26 24 23 22 21 20 19 18 18 18 17 17 17 17 17 17 17 17 17 17 16 17 16 16 16
29 28 28 28 28 28 28 28 28 29 29 28 28 29 30 29 28 28 27 26 24 23 22 21 20 19 18 18 17 17 17 17 17 17 16 16 16 16 16 16 16 16 16 16
28 28 28 29 30 30 29 29 29 28 27 28 28 29 29 29 28 27 27 25 24 23 21 20 19 18 18 17 17 17 17 16 17 17 16 16 16 16 16 16 16 16 16 16
28 27 27 27 28 28 28 29 29 29 28 28 28 29 28 28 27 26 25 24 22 21 20 19 19 18 18 17 17 17 16 16 16 16 16 16 16 16 16 16 16 16 16 16
27 27 28 28 29 29 28 28 29 29 29 28 29 29 28 27 27 26 24 23 22 21 19 19 18 18 17 17 17 16 16 16 16 16 16 16 16 16 16 16 16 16 15 15
27 27 28 29 29 29 29 29 28 28 29 29 29 29 29 27 26 25 23 23 22 20 19 19 18 17 17 17 16 16 16 16 16 16 16 16 16 16 16 15 15 15 15 15
26 27 27 27 28 28 28 29 28 28 29 29 29 29 27 25 24 23 23 22 21 20 19 18 18 17 17 17 16 16 16 16 16 16 16 16 15 15 15 15 15 15 15 15
26 26 26 27 28 27 27 28 28 28 29 29 28 28 26 25 23 22 22 21 21 20 19 18 17 17 17 17 16 16 16 16 16 16 15 15 15 15 15 15 15 15 15 14
25 25 26 27 26 25 28 27 28 28 28 28 27 26 25 23 21 20 20 20 20 19 18 17 17 16 16 16 16 16 16 16 15 15 15 15 15 15 15 15 14 14 14 14
24 24 26 26 26 26 26 26 27 27 27 26 26 24 22 20 20 19 18 18 18 17 17 17 17 16 16 16 16 16 15 15 15 15 15 15 15 15 14 14 14 14 14 13
23 24 25 25 25 25 26 26 24 26 25 25 24 23 22 22 24 21 17 16 16 16 16 16 16 16 16 16 16 15 15 15 15 15 15 14 14 14 14 14 14 13 13 13
23 23 24 24 24 26 25 24 24 24 25 23 22 22 22 22 21 17 16 15 15 15 15 15 15 15 15 15 15 15 15 15 15 14 14 14 14 14 14 13 13 13 13 12
24 24 23 24 24 24 23 23 24 23 21 21 21 20 19 17 16 15 15 15 15 15 15 15 15 15 15 15 15 14 14 14 14 14 14 14 13 13 13 13 13 12 12 12
23 23 24 24 23 20 20 20 19 19 19 19 19 18 17 16 16 15 14 14 14 14 14 14 14 14 14 14 14 14 14 14 14 14 13 13 13 12 12 12 12 11 11 11
21 20 21 21 21 20 19 18 18 18 18 17 17 17 16 16 15 14 14 14 13 13 13 13 13 14 14 14 14 13 13 13 13 13 12 12 12 12 11 11 11 10 10 10
21 20 21 21 20 19 18 18 17 17 16 16 16 16 15 15 14 14 13 13 13 13 12 12 13 13 13 13 13 13 13 13 12 12 12 11 11 11 10 10 9 9 9 9
21 20 21 21 20 20 19 17 16 16 15 15 15 14 14 14 13 13 12 12 12 12 12 12 12 12 12 12 12 12 12 12 12 11 11 10 10 10 9 9 8 8 8 8
Wind_Speed
11 12 14 12 12 9 7 9 9 7 5 8 8 7 4 2 4 5 5 7 8 9 9 11 12 13 14 14 16 16 16 15 13 10 10 10 10 8 8 8 9 10 10 10
9 15 15 9 8 10 10 11 10 7 4 7 8 8 3 2 3 4 5 6 7 8 9 10 12 13 14 15 16 16 16 15 14 11 9 8 8 8 8 8 9 10 10 10
16 5 9 12 12 12 13 12 9 7 7 7 8 9 4 3 3 3 4 5 6 8 9 10 12 13 14 15 16 15 15 15 15 13 9 8 6 6 8 8 8 9 11 11
14 10 8 12 13 13 12 9 9 8 9 6 4 9 4 2 4 4 4 5 6 7 8 9 11 12 13 14 14 14 14 14 14 14 12 13 11 11 11 9 8 8 9 10
11 11 13 14 13 13 9 5 7 8 9 10 8 9 5 2 4 3 4 4 5 6 7 8 10 11 12 12 12 13 13 13 14 14 14 14 12 11 9 9 9 8 8 9
11 8 10 12 11 11 7 6 6 8 9 11 7 8 6 2 2 1 3 4 4 6 6 7 8 9 10 10 10 11 12 13 13 14 14 15 15 13 12 11 10 9 7 8
13 14 12 9 10 11 11 10 8 9 9 8 3 6 5 2 1 1 2 3 4 6 7 8 9 9 9 10 10 11 12 13 13 14 14 14 14 14 13 12 11 10 8 8
13 12 15 14 16 12 14 15 10 7 7 5 5 6 2 1 1 1 2 3 5 7 7 8 8 8 8 9 9 10 10 11 12 13 13 12 13 11 10 11 10 9 7 8
10 8 8 11 14 15 13 14 13 10 9 7 5 4 3 4 4 4 4 5 6 7 7 7 7 7 7 7 8 8 9 9 10 11 11 10 11 10 10 10 10 8 7 7
8 7 8 8 9 13 12 11 9 10 9 9 7 7 3 4 5 6 6 6 6 7 7 7 7 6 6 6 6 7 7 8 8 9 10 9 10 10 9 9 9 7 7 7
12 9 8 10 11 14 12 12 10 10 9 8 6 2 2 3 3 5 6 6 6 7 7 7 6 6 6 6 6 6 7 7 7 8 9 9 9 9 9 8 7 7 7 8
13 9 10 11 7 6 13 14 13 11 9 9 9 2 6 4 4 4 5 6 6 7 7 7 7 7 6 6 6 7 7 7 7 7 8 8 8 8 7 7 7 7 7 7
11 8 10 11 10 9 11 13 14 12 9 10 10 4 7 5 5 5 5 6 7 7 7 7 7 7 7 7 6 6 6 6 6 7 7 7 8 8 7 7 6 7 6 6
8 9 13 13 8 12 13 14 14 14 12 11 11 6 6 6 6 5 5 6 8 8 8 8 7 7 7 7 7 6 6 6 6 7 7 7 7 7 7 6 6 7 6 6
8 11 12 11 5 7 12 14 15 16 14 11 9 8 3 4 5 5 6 7 8 8 8 8 7 7 7 7 7 6 6 6 7 7 7 7 7 7 7 7 7 6 6 6
6 8 10 11 10 11 12 12 14 15 12 11 9 4 5 6 6 6 6 7 7 7 7 8 7 8 8 7 7 7 7 7 7 8 8 8 8 7 7 7 7 7 7 6
8 8 10 12 11 11 15 14 13 12 10 10 9 3 7 6 6 5 5 5 6 6 6 7 7 7 7 7 7 7 7 7 7 7 8 8 8 8 7 8 8 8 8 8
7 10 9 11 10 15 7 3 7 9 8 5 1 5 5 7 7 6 4 4 5 5 5 5 5 6 6 7 7 7 7 8 8 8 8 8 8 8 8 8 8 8 8 8
7 9 10 11 15 14 6 5 7 9 8 5 4 6 7 10 9 6 5 4 4 4 4 4 4 5 6 6 7 8 7 8 7 7 8 8 9 9 9 9 9 8 9 9
8 8 11 11 14 14 8 7 4 6 8 5 5 7 8 8 6 5 5 4 5 4 4 4 4 5 6 6 7 8 8 8 8 7 7 8 9 10 10 10 11 10 10 11
13 11 14 14 13 10 4 6 6 10 4 5 5 6 6 3 4 7 6 5 5 4 4 4 4 5 5 5 7 7 7 7 7 8 8 8 9 10 11 12 11 12 12 12
13 13 13 13 14 10 5 6 5 1 5 5 5 5 6 7 8 7 6 5 5 4 4 4 5 5 5 5 6 7 6 6 7 9 9 10 9 9 11 13 13 13 14 14
7 4 6 6 3 5 3 3 4 3 4 5 5 6 7 7 7 6 5 5 4 4 4 4 5 6 5 4 5 6 6 7 9 10 10 11 11 10 10 12 12 11 11 11
4 1 2 3 3 4 4 4 4 4 4 5 5 5 6 6 6 6 5 4 4 4 4 4 5 5 5 5 5 5 6 8 10 11 11 12 13 12 11 9 9 9 9 11
3 4 5 4 4 5 5 4 4 5 5 5 5 5 5 6 6 6 5 5 4 4 4 4 5 6 6 6 6 6 7 9 11 12 13 13 12 13 12 12 10 9 8 7
6 5 6 3 4 3 5 5 4 4 4 5 5 6 6 6 7 7 7 6 5 5 5 6 7 7 7 7 8 7 7 10 12 13 12 11 11 12 13 13 14 19 16 18
Wind_Direction
194 215 222 223 229 257 266 264 263 271 298 296 284 291 293 242 223 215 204 192 193 194 187 186 190 188 185 184 186 187 188 187 184 185 188 189 193 195 200 204 199 202 208 203
198 226 230 233 230 237 245 254 257 261 280 291 290 287 278 239 237 237 221 204 197 189 184 182 186 187 189 187 189 190 191 189 190 190 191 194 191 193 199 204 198 204 210 210
215 227 217 216 220 229 238 247 257 275 289 256 280 264 230 224 225 218 216 206 194 189 188 185 188 190 191 191 192 193 195 193 193 188 185 184 182 193 198 202 202 206 210 211
229 221 201 211 221 228 236 240 254 266 271 265 278 286 274 254 236 210 202 197 193 191 190 187 190 191 193 193 191 194 197 197 195 189 190 190 196 201 203 201 198 199 208 211
216 216 214 221 224 224 241 240 247 257 260 268 251 273 289 241 260 217 190 189 189 187 188 185 187 189 189 189 188 190 195 198 198 196 196 199 204 207 204 200 195 201 204 208
231 210 221 228 226 222 216 217 231 243 249 251 254 269 283 320 316 263 185 183 182 179 176 172 171 173 177 182 186 188 192 196 197 199 201 203 206 204 201 200 198 202 203 208
220 219 216 219 208 198 208 220 223 225 226 240 185 256 280 348 329 291 220 187 179 170 168 164 165 169 175 180 184 190 195 198 198 201 205 208 208 207 205 203 203 204 204 208
209 214 208 212 218 207 211 223 235 245 243 225 183 249 279 115 168 212 190 160 160 163 161 159 161 165 171 178 184 191 196 200 199 202 207 208 206 207 208 206 207 206 210 211
209 206 184 206 214 221 214 225 239 254 265 268 242 240 238 184 195 186 165 153 155 156 156 155 156 160 165 176 184 190 191 193 195 200 200 200 203 206 205 200 205 207 208 207
218 209 183 181 194 213 232 223 222 235 244 249 241 241 243 185 186 178 170 162 153 155 155 156 158 157 160 165 171 181 183 187 192 193 196 194 196 197 199 201 201 202 204 205
221 220 188 182 201 193 198 212 222 231 246 257 253 227 111 153 168 173 168 161 159 162 158 156 155 152 153 158 164 172 179 183 188 189 191 190 190 192 192 195 195 194 198 193
209 223 222 208 197 215 209 214 213 225 228 244 268 240 107 132 148 156 149 150 151 154 154 153 152 153 157 160 162 169 176 181 184 184 182 181 182 183 183 185 184 183 184 186
185 208 216 206 201 205 217 218 219 229 240 240 247 221 125 134 143 146 143 145 149 152 153 153 155 159 161 162 165 170 172 171 173 173 173 173 173 174 175 173 168 170 171 175
196 217 231 234 219 193 204 208 212 218 227 232 242 250 157 159 155 148 146 149 151 154 158 162 162 164 164 165 164 168 166 162 160 161 161 162 165 165 163 161 160 163 164 167
207 221 229 248 248 217 215 210 207 218 236 248 244 240 184 147 152 148 151 154 154 155 163 170 170 167 167 168 166 167 163 158 155 153 153 153 154 153 151 149 148 150 154 158
210 230 222 228 224 223 224 220 214 220 231 243 251 225 105 112 125 137 148 160 161 160 165 170 169 169 171 173 172 169 165 158 155 152 152 149 146 146 142 139 139 138 135 135
200 213 223 229 215 218 225 218 214 215 222 231 235 187 130 132 130 136 146 155 156 156 160 165 167 170 172 174 172 168 163 158 156 154 151 148 143 140 138 136 133 133 130 123
213 219 227 233 214 229 221 167 219 221 216 223 172 120 124 121 112 98 96 122 132 140 147 152 160 164 167 164 162 160 156 157 156 155 153 146 141 137 133 128 126 125 122 118
215 215 227 230 227 227 192 178 199 212 214 202 185 146 132 130 129 106 81 84 101 112 125 137 147 151 150 153 154 154 153 152 154 158 156 150 145 141 135 130 126 122 117 110
192 215 227 227 237 234 215 153 173 219 215 165 169 161 158 178 202 126 104 91 84 88 103 119 132 137 138 144 152 153 154 154 158 160 155 150 147 143 138 132 126 120 114 111
197 206 223 227 233 237 119 141 181 221 210 128 151 154 164 150 69 108 109 93 88 88 95 110 121 125 129 143 153 155 151 153 151 146 142 138 137 136 131 125 123 121 116 111
211 213 218 229 235 228 122 173 210 74 86 120 131 130 117 106 109 115 112 103 97 95 100 111 117 115 115 130 145 147 146 141 134 132 129 126 125 124 124 124 123 122 121 116
225 247 235 233 233 81 108 106 79 85 109 111 118 118 125 128 128 124 116 107 101 96 104 112 118 115 109 117 138 140 137 131 127 123 121 118 112 109 114 119 122 121 120 118
183 207 222 203 158 132 126 120 110 103 108 105 107 117 129 131 131 128 117 107 103 97 100 108 114 115 107 102 105 114 120 125 124 122 119 115 112 106 100 102 107 112 117 120
193 194 210 209 162 157 155 137 122 114 110 109 110 112 120 130 132 126 118 110 103 97 94 104 109 108 106 104 101 102 114 124 125 122 118 114 110 106 96 85 78 91 87 102
209 215 226 219 152 176 140 125 120 121 118 118 119 114 115 125 127 125 117 110 106 103 101 104 104 101 98 99 98 100 112 126 125 120 118 116 113 109 107 101 86 65 74 72
Height
1499 1498 1494 1490 1490 1490 1491 1492 1492 1487 1484 1485 1481 1479 1478 1481 1483 1485 1487 1490 1493 1495 1498 1499 1500 1502 1505 1507 1510 1514 1517 1521 1525 1529 1532 1536 1539 1543 1546 1549 1552 1554 1557 1559
1497 1494 1487 1487 1490 1493 1493 1494 1490 1485 1483 1484 1481 1478 1476 1479 1481 1483 1485 1488 1491 1493 1496 1497 1498 1500 1502 1505 1508 1511 1515 1518 1522 1526 1529 1533 1537 1540 1544 1547 1549 1552 1554 1557
1488 1484 1484 1489 1492 1494 1492 1491 1488 1488 1483 1480 1482 1478 1474 1476 1479 1482 1484 1486 1489 1491 1493 1495 1496 1498 1500 1503 1505 1509 1512 1515 1519 1523 1527 1531 1534 1537 1541 1543 1546 1549 1552 1555
1484 1481 1486 1488 1488 1489 1490 1484 1486 1487 1488 1482 1484 1488 1474 1472 1475 1478 1481 1484 1487 1489 1491 1493 1494 1496 1498 1501 1504 1507 1510 1513 1516 1520 1524 1527 1530 1534 1537 1541 1544 1547 1550 1552
1480 1480 1483 1486 1483 1484 1483 1482 1484 1485 1485 1486 1481 1487 1475 1470 1472 1473 1478 1482 1485 1487 1489 1491 1492 1494 1497 1499 1502 1504 1507 1510 1513 1516 1520 1524 1527 1531 1535 1538 1541 1544 1547 1549
1473 1477 1478 1477 1477 1480 1481 1485 1485 1483 1481 1493 1483 1488 1481 1467 1471 1472 1476 1480 1483 1486 1488 1490 1492 1493 1496 1498 1500 1503 1505 1507 1511 1513 1517 1520 1523 1527 1531 1534 1538 1541 1544 1546
1477 1475 1474 1475 1477 1479 1481 1488 1494 1495 1493 1488 1479 1485 1477 1468 1470 1473 1475 1479 1482 1485 1487 1489 1491 1493 1494 1496 1498 1500 1502 1505 1508 1511 1514 1517 1520 1524 1527 1531 1534 1537 1540 1543
1477 1475 1469 1470 1472 1474 1477 1479 1490 1496 1491 1481 1481 1482 1469 1467 1472 1474 1476 1478 1481 1484 1486 1488 1490 1492 1494 1495 1497 1499 1501 1503 1505 1508 1511 1514 1517 1521 1524 1528 1531 1534 1537 1540
1465 1469 1462 1464 1466 1468 1474 1474 1466 1476 1480 1485 1476 1471 1465 1466 1470 1472 1475 1478 1480 1483 1485 1488 1490 1491 1493 1494 1496 1498 1499 1501 1503 1506 1508 1511 1514 1517 1521 1524 1527 1530 1533 1536
1457 1466 1461 1462 1465 1467 1465 1466 1472 1478 1491 1492 1481 1475 1469 1464 1466 1470 1473 1476 1480 1483 1485 1487 1489 1491 1492 1494 1495 1497 1498 1500 1502 1504 1506 1508 1511 1514 1517 1520 1523 1526 1529 1532
1455 1464 1462 1462 1465 1465 1470 1471 1469 1470 1472 1483 1486 1475 1457 1461 1464 1467 1471 1475 1479 1482 1484 1487 1489 1490 1492 1493 1494 1496 1497 1498 1500 1502 1504 1506 1509 1512 1514 1517 1519 1523 1525 1528
1454 1457 1460 1457 1453 1453 1458 1461 1466 1476 1478 1474 1475 1471 1458 1461 1464 1468 1471 1476 1479 1481 1484 1486 1488 1490 1491 1492 1494 1495 1496 1498 1499 1501 1502 1504 1507 1509 1512 1514 1517 1520 1522 1525
1453 1459 1468 1465 1463 1460 1458 1456 1458 1461 1466 1469 1473 1468 1459 1462 1465 1469 1472 1476 1479 1482 1484 1486 1487 1489 1490 1492 1493 1495 1496 1497 1498 1500 1501 1503 1505 1507 1510 1512 1515 1518 1521 1523
1452 1452 1456 1458 1451 1448 1455 1456 1455 1459 1464 1465 1464 1459 1458 1461 1465 1469 1473 1476 1479 1481 1483 1485 1487 1488 1490 1491 1493 1494 1495 1496 1497 1499 1500 1502 1504 1506 1509 1511 1514 1516 1519 1522
1450 1450 1448 1444 1442 1444 1447 1449 1453 1456 1453 1457 1455 1454 1455 1460 1465 1470 1473 1476 1478 1481 1483 1484 1486 1487 1489 1491 1492 1493 1495 1495 1496 1498 1499 1501 1503 1506 1508 1510 1513 1515 1518 1520
1449 1448 1447 1449 1445 1445 1448 1446 1449 1451 1451 1451 1451 1454 1458 1464 1467 1471 1473 1475 1478 1480 1482 1483 1485 1487 1488 1489 1491 1492 1494 1495 1496 1497 1499 1501 1503 1505 1508 1510 1512 1515 1517 1519
1445 1449 1452 1449 1445 1449 1454 1446 1447 1449 1448 1449 1452 1454 1460 1465 1469 1472 1474 1476 1477 1480 1481 1483 1484 1485 1487 1489 1490 1492 1493 1495 1496 1497 1499 1501 1503 1505 1507 1510 1512 1514 1516 1519
1447 1448 1447 1446 1452 1465 1445 1443 1444 1446 1448 1450 1453 1458 1462 1467 1472 1474 1475 1477 1478 1480 1481 1483 1484 1485 1486 1488 1489 1491 1493 1494 1496 1497 1499 1500 1502 1505 1507 1510 1512 1514 1516 1518
1445 1447 1446 1447 1452 1450 1448 1446 1447 1449 1451 1452 1455 1460 1465 1469 1472 1475 1477 1478 1479 1480 1481 1482 1483 1484 1485 1487 1488 1490 1492 1493 1495 1497 1499 1500 1502 1504 1506 1509 1511 1514 1516 1518
1446 1446 1446 1448 1454 1455 1443 1444 1449 1451 1454 1455 1457 1461 1464 1467 1464 1473 1478 1478 1479 1480 1480 1481 1482 1484 1485 1486 1488 1490 1491 1493 1494 1496 1498 1500 1502 1504 1506 1508 1511 1513 1515 1518
1444 1446 1445 1447 1450 1443 1443 1448 1451 1458 1454 1457 1459 1462 1464 1466 1468 1475 1477 1478 1479 1479 1480 1481 1482 1483 1484 1486 1487 1489 1490 1492 1494 1496 1498 1499 1501 1503 1505 1507 1510 1512 1515 1517
1438 1440 1445 1445 1450 1448 1448 1449 1450 1454 1458 1459 1461 1464 1467 1470 1472 1474 1476 1478 1479 1479 1480 1481 1482 1482 1484 1485 1486 1487 1489 1491 1493 1495 1497 1499 1501 1503 1505 1507 1509 1512 1514 1517
1438 1439 1435 1440 1445 1451 1452 1453 1457 1459 1460 1462 1464 1466 1468 1470 1472 1474 1476 1477 1478 1479 1480 1481 1481 1482 1483 1484 1485 1486 1488 1490 1492 1494 1496 1498 1500 1503 1505 1507 1509 1512 1514 1517
1442 1446 1444 1446 1447 1452 1455 1457 1459 1460 1462 1464 1466 1467 1469 1470 1472 1474 1476 1477 1478 1479 1479 1480 1481 1481 1482 1483 1484 1485 1487 1489 1491 1493 1495 1497 1500 1502 1505 1508 1510 1513 1515 1518
1441 1445 1443 1446 1449 1453 1456 1458 1460 1461 1463 1464 1466 1467 1469 1471 1472 1473 1475 1476 1477 1478 1479 1479 1480 1480 1481 1482 1483 1485 1486 1489 1491 1493 1495 1498 1500 1503 1506 1508 1511 1514 1517 1520
1442 1444 1444 1444 1449 1451 1455 1458 1460 1461 1463 1464 1466 1467 1469 1470 1471 1473 1474 1476 1477 1478 1478 1479 1480 1480 1481 1482 1483 1485 1486 1488 1490 1492 1495 1498 1501 1504 1507 1509 1513 1517 1520 1523